Gwinn, MI

8:19 AM EST on November 24, 2017 (GMT -0500)
Sawyer International

Weather History for KSAW - September, 2013

Change the Weather History Date:

Sunday, September 22, 2013

  Actual Average (KESC) Record (KESC)
Temperature  
Mean Temperature 44 °F -  
Max Temperature 48 °F 60 °F 78 °F (2017)
Min Temperature 40 °F 45 °F 32 °F (1974)
Degree Days  
Heating Degree Days 20    
Moisture  
Dew Point 39 °F    
Average Humidity 84    
Maximum Humidity 93    
Minimum Humidity 66    
Precipitation  
Precipitation 0.00 in - - ()
Sea Level Pressure  
Sea Level Pressure 30.03 in    
Wind  
Wind Speed 5 mph (North)    
Max Wind Speed 9 mph    
Max Gust Speed -    
Visibility 10 miles    
Events      
Averages and records for this station are not official NWS values.
T = Trace of Precipitation, MM = Missing Value Source: NWS Daily Summary

Daily Weather History Graph

Daily Weather History Graph

Search for Another Location

Airport or City:

Trip Planner

Search our weather history database for the weather conditions in past years. The results will help you decide how hot, cold, wet, or windy it might be!

Date:

Astronomy

Sep. 22, 2013 Rise Set
Actual Time 7:36 AM EDT 7:46 PM EDT
Civil Twilight 7:06 AM EDT 8:16 PM EDT
Nautical Twilight 6:31 AM EDT 8:51 PM EDT
Astronomical Twilight 5:55 AM EDT 9:28 PM EDT
Moon 9:22 PM EDT (9/22) 11:10 AM EDT (9/22)
Length of Visible Light 13h 09m
Length of Day
12h 09m
Waning Gibbous, 89% of the Moon is Illuminated
Sep 22
Waning Gibbous
Sep 26
Last Quarter
Oct 4
New
Oct 11
First Quarter
Oct 18
Full

Hourly Weather History & Observations

Time (EDT) Temp. Windchill Dew Point Humidity Pressure Visibility Wind Dir Wind Speed Gust Speed Precip Events Conditions
12:17 AM 42.3 °F 38.6 °F 40.3 °F 93% 29.96 in 10.0 mi NW 5.8 mph - N/A   Overcast
12:36 AM 42.3 °F 38.6 °F 40.5 °F 93% 29.96 in 10.0 mi NW 5.8 mph - N/A   Overcast
12:57 AM 42.3 °F 38.6 °F 40.5 °F 93% 29.96 in 10.0 mi NW 5.8 mph - N/A   Overcast
1:16 AM 42.4 °F 38.1 °F 40.1 °F 91% 29.96 in 10.0 mi NW 6.9 mph - N/A   Overcast
1:37 AM 42.3 °F 37.9 °F 39.4 °F 90% 29.97 in 10.0 mi NNW 6.9 mph - N/A   Overcast
1:57 AM 41.9 °F 37.5 °F 39.2 °F 90% 29.97 in 10.0 mi NNW 6.9 mph - N/A   Overcast
2:16 AM 42.1 °F 38.4 °F 39.2 °F 90% 29.98 in 10.0 mi NW 5.8 mph - N/A   Overcast
2:37 AM 41.9 °F 38.2 °F 39.2 °F 90% 29.98 in 10.0 mi NNW 5.8 mph - N/A   Overcast
2:56 AM 41.5 °F 38.6 °F 39.0 °F 91% 29.98 in 10.0 mi NW 4.6 mph - N/A   Overcast
3:17 AM 41.9 °F 40.0 °F 39.2 °F 90% 29.98 in 10.0 mi NNW 3.5 mph - N/A   Overcast
3:37 AM 41.9 °F - 39.2 °F 90% 29.99 in 10.0 mi Calm Calm - N/A   Overcast
3:56 AM 41.9 °F 40.0 °F 39.2 °F 90% 29.99 in 10.0 mi NW 3.5 mph - N/A   Overcast
4:17 AM 41.9 °F 39.0 °F 39.2 °F 90% 29.99 in 10.0 mi NW 4.6 mph - N/A   Overcast
4:36 AM 41.9 °F 37.5 °F 39.4 °F 91% 29.99 in 10.0 mi NW 6.9 mph - N/A   Overcast
4:56 AM 41.9 °F 38.2 °F 39.2 °F 90% 30.00 in 10.0 mi NNW 5.8 mph - N/A   Overcast
5:17 AM 41.9 °F 39.0 °F 39.4 °F 91% 30.00 in 10.0 mi NW 4.6 mph - N/A   Overcast
5:36 AM 42.1 °F 40.2 °F 39.6 °F 91% 30.01 in 10.0 mi NW 3.5 mph - N/A   Overcast
5:57 AM 42.3 °F 39.4 °F 39.6 °F 90% 30.01 in 10.0 mi NW 4.6 mph - N/A   Overcast
6:50 AM 42.8 °F 41.1 °F 39.2 °F 87% 30.03 in 10.0 mi NW 3.5 mph - N/A   Overcast
7:50 AM 42.8 °F 41.1 °F 39.2 °F 87% 30.04 in 10.0 mi NNW 3.5 mph - N/A   Overcast
8:50 AM 42.8 °F - 39.2 °F 87% 30.06 in 10.0 mi Calm Calm - N/A   Overcast
9:50 AM 44.6 °F 40.7 °F 41.0 °F 87% 30.07 in 10.0 mi North 6.9 mph - N/A   Overcast
10:50 AM 44.6 °F 43.1 °F 41.0 °F 87% 30.09 in 10.0 mi NNE 3.5 mph - N/A   Overcast
11:50 AM 46.4 °F 42.4 °F 39.2 °F 76% 30.09 in 10.0 mi NNE 8.1 mph - N/A   Overcast
12:50 PM 48.2 °F - 39.2 °F 71% 30.09 in 10.0 mi NNE 9.2 mph - N/A   Overcast
1:50 PM 48.2 °F - 37.4 °F 66% 30.09 in 10.0 mi NE 9.2 mph - N/A   Overcast
2:50 PM 48.2 °F - 39.2 °F 71% 30.08 in 10.0 mi ENE 4.6 mph - N/A   Overcast
3:50 PM 48.2 °F - 39.2 °F 71% 30.08 in 10.0 mi NNE 5.8 mph - N/A   Overcast
4:50 PM 48.2 °F - 39.2 °F 71% 30.08 in 10.0 mi NNE 3.5 mph - N/A   Overcast
5:50 PM 48.2 °F - 39.2 °F 71% 30.06 in 10.0 mi ENE 5.8 mph - N/A   Overcast
6:50 PM 48.2 °F - 39.2 °F 71% 30.06 in 10.0 mi East 4.6 mph - N/A   Overcast
7:50 PM 46.4 °F 45.2 °F 37.4 °F 71% 30.07 in 10.0 mi ENE 3.5 mph - N/A   Overcast
8:50 PM 44.6 °F 42.2 °F 39.2 °F 81% 30.08 in 10.0 mi ESE 4.6 mph - N/A   Clear
9:50 PM 42.8 °F 40.1 °F 37.4 °F 81% 30.09 in 10.0 mi ESE 4.6 mph - N/A   Clear
10:17 PM 43.0 °F 40.3 °F 37.8 °F 82% 30.09 in 10.0 mi ESE 4.6 mph - N/A   Clear
10:37 PM 42.8 °F 39.3 °F 37.8 °F 82% 30.09 in 10.0 mi ESE 5.8 mph - N/A   Clear
10:56 PM 42.3 °F 38.6 °F 37.8 °F 84% 30.08 in 10.0 mi ESE 5.8 mph - N/A   Clear
11:17 PM 41.9 °F 39.0 °F 37.6 °F 85% 30.09 in 10.0 mi ESE 4.6 mph - N/A   Clear
11:36 PM 41.4 °F 39.4 °F 37.4 °F 86% 30.09 in 10.0 mi SE 3.5 mph - N/A   Clear
11:57 PM 40.3 °F - 37.0 °F 88% 30.09 in 10.0 mi Calm Calm - N/A   Clear